Precipitable_Water
1.21 1.28 1.31 1.34 1.38 1.48 1.53 1.63 1.63 1.71 1.82 1.79 1.78 1.88 1.88 1.94 2.00 1.89 1.78 1.84 1.83 1.94 2.03 2.10 2.00 2.13 2.04 1.65 1.51 1.42 1.28 1.24 1.20 1.29 1.41 1.47 1.37 1.44 1.46 1.47 1.54 1.55 1.59
1.24 1.29 1.32 1.39 1.40 1.37 1.48 1.56 1.68 1.66 1.72 1.73 1.81 1.83 1.94 1.91 1.92 1.74 1.72 1.95 2.01 1.98 1.97 2.02 2.02 2.04 1.60 1.48 1.36 1.16 1.17 1.38 1.29 1.14 1.20 1.27 1.33 1.37 1.46 1.53 1.61 1.64 1.60
1.32 1.35 1.37 1.41 1.41 1.40 1.49 1.59 1.67 1.69 1.70 1.74 1.84 1.89 1.91 1.89 1.87 1.86 1.99 2.04 2.03 2.01 2.02 2.00 1.98 1.56 1.35 1.29 1.09 1.05 1.38 1.42 1.25 1.17 1.11 1.29 1.33 1.36 1.30 1.53 1.51 1.55 1.55
1.30 1.39 1.39 1.45 1.50 1.49 1.53 1.61 1.71 1.70 1.68 1.76 1.85 1.92 1.92 1.90 1.85 1.94 1.95 1.98 2.05 2.02 2.02 2.03 1.70 1.38 1.25 1.13 1.09 1.18 1.23 1.15 1.11 1.19 1.17 1.18 1.27 1.34 1.28 1.25 1.38 1.44 1.46
1.29 1.36 1.42 1.49 1.58 1.60 1.60 1.64 1.77 1.70 1.69 1.81 1.83 1.79 1.81 1.84 1.86 1.87 1.92 1.98 2.01 1.98 2.07 1.88 1.50 1.32 1.08 1.09 1.06 1.14 1.06 1.07 1.07 1.06 1.04 1.10 1.17 1.20 1.32 1.49 1.29 1.35 1.42
1.32 1.35 1.49 1.50 1.59 1.60 1.64 1.59 1.63 1.63 1.67 1.75 1.72 1.62 1.59 1.64 1.68 1.79 1.90 1.98 2.02 1.96 1.90 1.73 1.43 1.18 1.02 0.99 0.99 0.96 1.01 1.01 0.92 0.92 0.97 1.01 1.05 1.18 1.33 1.29 1.24 1.14 1.07
1.31 1.36 1.46 1.49 1.53 1.61 1.65 1.56 1.53 1.59 1.65 1.66 1.68 1.62 1.62 1.65 1.72 1.73 1.79 2.04 2.01 1.93 1.83 1.58 1.32 1.25 1.09 1.04 0.90 0.89 0.92 0.93 0.89 0.87 0.82 0.93 1.12 1.29 1.24 1.26 1.27 1.19 1.13
1.28 1.30 1.43 1.46 1.45 1.62 1.57 1.50 1.55 1.65 1.61 1.56 1.62 1.65 1.57 1.61 1.63 1.64 1.69 1.84 1.98 1.93 1.85 1.44 1.26 1.18 1.11 1.05 1.01 0.95 0.96 0.95 0.92 0.90 0.93 0.94 1.02 1.22 1.35 1.30 1.23 1.16 1.11
1.21 1.23 1.37 1.42 1.33 1.42 1.45 1.47 1.55 1.61 1.64 1.58 1.58 1.58 1.54 1.59 1.62 1.62 1.67 1.79 1.82 1.83 1.86 1.51 1.30 1.22 1.16 1.04 1.04 0.97 0.86 0.78 0.85 0.77 0.86 0.90 0.95 1.01 1.08 1.07 0.98 0.96 0.92
1.12 1.20 1.38 1.44 1.34 1.27 1.40 1.42 1.51 1.63 1.67 1.66 1.61 1.63 1.64 1.68 1.78 1.72 1.73 1.86 1.80 1.74 1.80 1.57 1.30 1.25 1.19 1.09 1.05 0.97 0.70 0.68 0.69 0.81 0.78 0.76 0.83 0.88 0.96 1.03 0.97 0.89 0.89
1.15 1.29 1.41 1.44 1.38 1.31 1.37 1.40 1.43 1.57 1.69 1.67 1.65 1.67 1.72 1.79 1.90 1.89 1.88 1.92 1.87 1.75 1.67 1.51 1.40 1.24 1.18 1.15 1.09 0.99 0.72 0.72 0.64 0.68 0.79 0.81 0.81 0.83 0.90 0.95 0.98 0.93 0.86
1.14 1.24 1.36 1.43 1.43 1.40 1.36 1.35 1.38 1.47 1.52 1.54 1.58 1.57 1.63 1.71 1.76 1.81 1.80 1.81 1.87 1.75 1.63 1.56 1.44 1.35 1.25 1.27 1.27 1.14 0.77 0.64 0.72 0.71 0.74 0.76 0.75 0.77 0.82 0.86 0.87 0.88 0.84
1.09 1.18 1.30 1.41 1.49 1.52 1.46 1.36 1.32 1.39 1.37 1.42 1.47 1.47 1.55 1.72 1.80 1.84 1.87 1.90 1.91 1.86 1.89 1.76 1.48 1.37 1.30 1.32 1.36 1.28 1.05 0.95 0.88 0.74 0.69 0.75 0.77 0.79 0.79 0.79 0.79 0.78 0.74
1.10 1.16 1.26 1.29 1.39 1.49 1.53 1.54 1.44 1.42 1.39 1.41 1.39 1.36 1.53 1.65 1.77 1.84 1.80 1.84 1.91 1.92 1.86 1.83 1.67 1.49 1.40 1.37 1.31 1.24 1.18 1.02 0.95 0.91 0.88 0.80 0.76 0.70 0.68 0.68 0.63 0.66 0.62
1.33 1.24 1.23 1.27 1.29 1.35 1.40 1.41 1.43 1.48 1.45 1.37 1.45 1.51 1.54 1.60 1.70 1.84 1.82 1.78 1.82 1.87 1.89 1.80 1.65 1.52 1.38 1.39 1.35 1.32 1.26 1.13 0.95 0.94 0.93 0.92 0.84 0.77 0.72 0.67 0.57 0.52 0.50
1.30 1.31 1.25 1.27 1.35 1.34 1.34 1.34 1.50 1.56 1.58 1.58 1.61 1.66 1.72 1.74 1.82 1.89 1.89 1.90 1.91 1.92 1.82 1.72 1.57 1.57 1.47 1.38 1.33 1.36 1.38 1.30 1.14 1.04 0.98 0.95 0.91 0.89 0.85 0.79 0.73 0.64 0.60
1.31 1.33 1.36 1.30 1.38 1.39 1.37 1.36 1.37 1.54 1.65 1.68 1.68 1.69 1.67 1.68 1.71 1.73 1.78 1.82 1.94 2.08 1.87 1.81 1.68 1.63 1.56 1.49 1.38 1.40 1.39 1.39 1.32 1.18 1.05 0.99 0.95 0.92 0.87 0.85 0.81 0.72 0.67
1.42 1.39 1.40 1.36 1.33 1.42 1.39 1.40 1.47 1.47 1.53 1.56 1.74 1.68 1.68 1.66 1.68 1.72 1.74 1.77 1.67 1.80 1.86 1.84 1.79 1.76 1.67 1.61 1.54 1.47 1.44 1.43 1.40 1.30 1.20 1.13 1.05 0.96 0.87 0.80 0.77 0.71 0.65
1.26 1.30 1.34 1.42 1.37 1.40 1.50 1.48 1.46 1.48 1.56 1.70 1.72 1.74 1.71 1.67 1.66 1.68 1.75 1.68 1.62 1.63 1.75 1.82 1.87 1.87 1.82 1.79 1.72 1.62 1.56 1.46 1.45 1.43 1.34 1.29 1.20 1.03 0.91 0.82 0.74 0.70 0.64
1.42 1.36 1.35 1.41 1.52 1.50 1.61 1.54 1.51 1.57 1.60 1.38 1.71 1.77 1.69 1.58 1.47 1.48 1.55 1.64 1.64 1.66 1.69 1.74 1.82 1.84 1.82 1.78 1.72 1.67 1.58 1.51 1.44 1.47 1.40 1.38 1.33 1.14 0.95 0.81 0.72 0.67 0.59
1.64 1.45 1.42 1.56 1.63 1.64 1.62 1.48 1.39 1.36 1.18 1.33 1.97 1.83 1.59 1.49 1.44 1.46 1.53 1.57 1.60 1.62 1.68 1.71 1.76 1.76 1.78 1.75 1.71 1.68 1.66 1.61 1.53 1.48 1.48 1.42 1.35 1.23 1.04 0.84 0.76 0.66 0.61
1.82 1.74 1.59 1.58 1.53 1.50 1.51 1.29 1.19 1.25 1.47 1.89 1.76 1.64 1.60 1.50 1.47 1.49 1.53 1.60 1.66 1.70 1.77 1.72 1.59 1.53 1.53 1.58 1.61 1.60 1.59 1.60 1.61 1.55 1.52 1.48 1.39 1.29 1.10 0.87 0.78 0.64 0.57
1.86 1.98 1.82 1.72 1.70 1.70 1.47 1.50 1.48 1.65 1.82 1.67 1.61 1.49 1.51 1.44 1.43 1.47 1.50 1.56 1.61 1.61 1.44 1.42 1.40 1.40 1.51 1.58 1.66 1.66 1.62 1.66 1.68 1.63 1.57 1.52 1.39 1.30 1.09 0.87 0.83 0.66 0.58
1.62 1.89 1.94 2.04 1.85 1.87 1.85 1.89 1.86 1.68 1.74 1.61 1.54 1.54 1.45 1.39 1.39 1.42 1.48 1.50 1.36 1.33 1.40 1.40 1.37 1.37 1.39 1.52 1.64 1.85 1.93 1.90 1.85 1.75 1.66 1.51 1.37 1.23 1.03 0.91 0.87 0.73 0.60
1.65 1.68 1.59 2.26 2.00 1.90 1.87 1.89 1.81 1.64 1.54 1.46 1.45 1.40 1.35 1.37 1.37 1.36 1.30 1.27 1.25 1.27 1.34 1.35 1.33 1.36 1.43 1.52 1.64 1.91 1.93 1.88 1.84 1.76 1.65 1.46 1.43 1.22 1.15 1.12 1.04 0.77 0.61
1.78 2.11 2.28 2.22 1.84 1.74 1.68 1.62 1.56 1.52 1.50 1.48 1.42 1.39 1.39 1.36 1.37 1.36 1.33 1.30 1.29 1.29 1.30 1.27 1.28 1.30 1.39 1.53 1.59 1.75 1.86 1.88 1.84 1.76 1.61 1.51 1.42 1.36 1.28 1.18 1.08 0.80 0.66
Wind_Speed
14 13 12 12 12 14 14 14 13 12 11 11 9 9 9 10 11 11 11 9 9 8 7 6 5 5 5 5 5 6 6 6 7 7 7 7 8 7 6 6 5 5 4
13 11 12 12 12 12 14 15 14 13 12 12 11 11 11 12 12 12 11 9 8 7 6 6 5 5 6 5 6 6 6 6 7 7 7 7 6 6 5 5 4 3 3
14 12 10 12 12 12 13 14 15 14 12 12 12 13 13 14 14 13 11 9 9 8 6 6 6 5 5 5 6 5 4 5 6 7 7 5 5 4 3 2 2 3 4
16 13 11 11 12 12 13 14 14 14 13 12 11 13 16 16 15 14 11 9 8 8 7 5 5 5 6 5 5 4 5 6 6 6 5 4 4 3 3 2 2 2 2
17 15 14 13 13 12 13 13 14 14 13 12 9 9 16 16 16 14 12 10 9 8 7 6 6 6 5 5 4 4 5 6 6 5 5 4 4 3 3 3 3 4 4
18 16 14 14 15 14 14 14 13 14 14 14 11 11 14 14 15 14 12 10 10 9 9 8 7 6 5 4 4 4 5 6 6 6 5 5 5 4 4 4 5 5 5
19 17 15 15 16 16 15 15 14 14 14 16 15 14 14 14 14 13 12 11 10 9 9 9 7 6 5 5 5 5 6 6 7 7 6 6 5 5 5 5 6 6 7
20 18 16 15 16 17 16 16 15 14 15 16 17 16 15 15 14 14 13 12 11 10 9 8 8 6 6 5 5 6 7 7 7 6 6 7 7 6 7 7 8 9 10
21 18 16 15 15 16 17 17 15 14 15 16 17 17 16 14 14 14 13 12 11 11 11 10 9 8 7 6 6 7 8 8 7 7 7 7 7 8 9 9 10 10 10
20 19 16 15 15 15 17 17 16 14 14 14 15 16 15 14 13 14 13 12 11 11 11 11 10 9 8 8 8 8 8 8 7 6 7 7 8 8 9 9 10 11 11
21 19 17 16 14 14 16 16 16 15 14 14 15 14 14 13 13 14 14 12 11 11 11 11 11 11 10 9 8 8 8 8 8 8 8 8 8 8 9 10 11 12 13
21 20 18 18 16 15 16 15 16 15 15 14 13 13 12 12 11 12 13 12 11 11 11 11 12 11 11 10 9 8 9 9 9 9 9 9 9 10 10 11 11 12 13
23 22 20 19 19 17 17 16 16 16 15 14 13 12 11 11 11 12 13 14 13 12 11 12 11 11 12 12 12 11 10 11 10 10 10 11 11 11 11 12 12 13 13
24 24 22 21 21 20 19 18 17 17 16 15 14 14 13 12 12 12 14 14 15 14 13 12 13 14 14 14 13 13 13 13 13 13 12 12 12 13 13 13 14 15 16
23 26 25 23 24 22 22 20 20 19 18 17 16 16 16 16 17 16 16 17 17 18 17 16 16 17 17 17 17 16 16 16 16 16 15 15 14 14 15 15 16 16 17
23 26 27 26 25 25 24 22 20 19 19 19 18 18 17 17 17 19 20 21 21 21 21 21 20 21 21 21 20 20 20 20 19 18 18 18 17 17 17 17 17 18 18
25 27 30 29 28 27 26 25 22 22 20 21 21 20 20 17 20 21 23 24 24 25 26 25 24 24 24 24 24 23 22 22 22 21 21 21 21 20 20 20 19 19 19
28 29 31 32 33 31 30 28 25 23 22 23 23 23 23 23 23 23 23 23 24 26 27 28 27 27 26 27 27 26 25 24 23 23 24 24 24 23 22 22 21 21 20
28 31 33 34 34 34 32 30 28 26 23 22 21 22 22 21 21 21 22 22 22 24 26 27 28 29 29 29 29 30 29 29 28 27 27 27 27 26 24 23 22 21 20
27 30 33 35 36 35 33 33 31 28 27 25 23 23 21 20 20 20 20 21 22 23 23 25 27 28 30 31 31 32 33 32 32 31 29 28 26 27 25 24 23 22 21
27 30 33 34 36 36 35 30 27 31 33 29 24 22 21 20 20 20 20 21 21 21 22 24 25 27 30 33 35 36 37 37 36 34 32 30 28 27 27 25 23 22 21
30 30 33 34 36 37 38 35 23 21 22 26 25 22 21 20 19 19 20 20 21 22 22 23 25 28 31 35 38 40 42 42 41 38 35 32 29 28 27 26 24 22 21
31 33 34 34 33 33 32 28 22 22 24 24 23 22 21 21 21 20 20 21 22 22 23 25 28 30 33 37 40 44 45 44 43 40 35 32 30 28 27 26 24 23 22
38 37 35 33 32 30 28 27 25 23 24 24 23 22 22 22 23 23 23 22 22 23 25 26 28 30 32 34 36 35 35 36 39 38 34 31 28 27 26 25 24 23 22
35 51 73 31 30 29 27 26 25 24 24 23 23 23 23 23 23 23 22 23 24 25 26 26 26 27 28 29 28 26 26 29 32 34 30 28 27 27 26 25 24 24 23
17 2 19 24 25 25 24 23 22 22 23 23 23 23 23 23 24 24 25 25 25 25 25 24 23 23 23 22 19 16 15 21 27 29 27 26 26 26 27 27 27 24 23
Wind_Direction
210 216 220 223 224 223 225 226 225 224 224 227 229 225 218 207 205 203 201 200 206 214 226 236 261 276 272 291 296 301 302 301 303 308 317 314 312 307 302 303 305 317 313
207 213 219 223 226 227 226 225 223 224 228 231 233 229 225 213 206 201 199 203 208 219 233 241 261 272 285 291 296 301 302 306 306 313 315 317 319 314 306 300 296 309 322
209 215 221 225 227 229 224 222 221 223 228 233 232 229 222 208 202 200 203 209 217 228 241 237 258 269 285 293 295 296 303 304 309 312 311 316 325 327 323 306 295 300 307
212 219 225 227 228 228 222 218 220 223 228 231 234 234 218 206 199 198 204 213 224 228 235 244 257 276 286 286 283 289 298 306 308 306 308 311 318 327 323 319 308 324 317
214 224 228 232 230 228 221 218 222 223 225 222 223 210 193 195 198 201 209 220 223 230 236 246 267 280 283 280 276 289 301 304 306 303 303 304 304 310 319 307 308 313 310
218 226 231 230 228 226 220 218 219 219 219 212 205 192 189 195 201 207 215 223 225 233 239 247 266 269 269 268 277 291 303 306 303 301 298 301 290 288 290 296 301 309 316
222 226 232 230 226 224 219 218 217 217 215 211 208 206 204 205 206 212 219 224 225 239 231 246 256 252 258 264 274 288 297 303 298 294 289 287 290 290 287 289 292 296 300
220 226 228 227 223 219 217 215 215 216 214 212 211 210 211 213 214 217 219 226 231 233 238 244 246 247 253 262 274 288 295 299 296 294 286 283 278 276 281 285 288 292 293
218 221 221 219 218 214 212 210 212 214 213 212 210 211 212 214 214 216 219 227 234 237 242 243 243 246 251 262 275 288 295 298 295 291 289 286 281 277 276 281 285 290 293
213 212 213 212 211 207 206 205 205 206 206 205 205 206 208 212 213 214 218 228 236 240 242 240 242 247 249 259 274 286 294 292 291 290 290 289 282 281 277 279 284 288 295
208 207 208 206 204 200 198 198 198 198 198 198 198 201 205 213 219 216 218 233 239 240 241 240 243 240 247 257 271 283 290 291 289 287 287 289 285 283 281 283 287 291 293
205 205 204 201 199 194 190 189 190 192 192 192 192 198 206 212 218 217 221 229 238 243 245 246 245 241 246 253 266 279 287 284 284 284 283 284 285 283 283 286 289 291 295
203 203 202 200 199 195 193 192 193 195 197 198 200 204 212 216 223 226 231 237 245 249 253 250 240 244 244 252 262 272 278 279 279 280 280 281 282 284 285 286 289 292 294
205 205 205 204 203 203 203 202 203 204 207 211 216 221 225 230 235 238 241 244 248 250 254 254 248 250 251 257 261 267 274 275 274 276 278 280 280 281 281 283 285 289 293
211 211 212 212 211 211 212 212 214 217 219 222 227 232 237 242 246 248 250 251 252 252 252 255 256 253 255 257 261 266 270 273 272 273 274 276 277 279 281 282 284 288 290
218 217 217 217 216 217 218 219 221 225 230 233 238 241 246 251 254 253 256 258 257 253 252 256 259 257 257 258 260 264 268 271 269 269 270 272 274 276 279 282 283 285 289
225 223 221 220 220 219 219 221 225 229 236 240 242 245 249 261 260 263 263 263 261 254 254 256 260 260 260 260 260 263 267 270 264 266 269 271 272 274 275 278 281 283 286
232 229 225 223 223 223 224 226 229 233 239 242 244 248 253 259 266 269 268 264 262 256 255 256 259 260 261 262 261 262 264 265 264 266 271 271 269 269 272 274 277 280 282
235 231 228 225 225 224 224 226 230 237 240 244 244 250 255 262 266 271 266 263 262 259 257 257 259 261 262 263 263 262 262 262 262 266 271 273 266 264 267 270 274 277 279
239 234 230 227 224 223 223 228 230 233 238 241 246 251 251 257 265 269 265 263 265 265 263 261 262 263 264 264 265 264 263 262 261 263 268 270 265 259 262 265 269 272 274
244 235 231 226 222 224 226 237 234 251 249 235 243 247 246 254 263 267 266 266 268 267 266 267 269 269 268 268 268 267 264 261 260 259 262 263 261 258 257 260 265 269 272
244 238 229 226 225 226 227 225 241 238 223 229 235 240 245 256 265 270 270 268 269 269 270 272 274 276 277 276 274 269 266 262 256 254 255 257 256 255 253 255 260 265 268
245 235 227 223 222 224 227 230 230 228 226 227 232 240 247 258 266 269 272 273 273 272 274 280 283 284 285 285 282 275 267 259 252 247 247 249 250 250 248 251 256 260 265
247 232 224 217 214 215 218 222 223 223 225 229 235 243 252 260 266 269 272 274 274 275 280 285 288 291 294 295 293 278 263 255 245 237 239 240 243 243 244 248 254 258 262
247 244 225 215 206 212 216 220 220 223 227 233 240 249 256 260 266 270 271 275 277 279 282 285 291 296 299 303 303 285 262 249 233 225 230 235 239 238 244 249 256 255 261
250 305 162 178 197 206 210 215 220 226 232 239 246 252 258 263 268 270 273 277 278 279 281 285 290 297 304 308 311 303 268 238 218 218 228 236 238 243 249 255 254 253 262